EW8803 Weather Reports


time (UTC)temp
C
wind
direction
speed
KPH
gust
KPH
rain 1hr
cm
rain 24hr
cm
rain mn
cm
humidity
%
barometer
mb
20260504000536 15 215 3.2 6.4 0.00 0.05 0.00 69 1013.1
20260504000051 15 167 4.8 6.4 0.00 0.05 0.00 69 1013.1
20260503235522 15 224 3.2 3.2 0.00 0.05 0.00 68 1013.1
20260503234519 15 231 0.0 4.8 0.00 0.05 0.00 67 1013.1
20260503234127 15 246 3.2 4.8 0.00 0.05 0.00 66 1011.6
20260503233548 15 228 3.2 4.8 0.00 0.05 0.00 67 1013.1
20260503233035 15 240 0.0 6.4 0.00 0.05 0.00 66 1013.1
20260503232609 15 236 4.8 6.4 0.00 0.05 0.00 65 1011.6
20260503231522 15 241 4.8 8.0 0.00 0.05 0.00 66 1014.1
20260503231051 15 251 0.0 8.0 0.00 0.05 0.00 66 1014.1
20260503230529 15 269 3.2 8.0 0.00 0.05 0.00 66 1014.1
20260503230125 15 276 3.2 9.7 0.00 0.05 0.00 66 1014.2
20260503225611 15 268 3.2 12.9 0.00 0.05 0.00 66 1011.7
20260503225114 15 277 6.4 12.9 0.00 0.05 0.00 66 1011.7
20260503224534 15 264 6.4 11.3 0.00 0.05 0.00 66 1014.1
20260503224042 15 274 6.4 11.3 0.00 0.05 0.00 66 1014.0
20260503223538 15 277 9.7 11.3 0.00 0.05 0.00 66 1014.1
20260503223028 15 283 9.7 11.3 0.00 0.05 0.00 66 1014.0
20260503222518 15 285 4.8 11.3 0.00 0.05 0.00 67 1014.1
20260503222026 15 281 8.0 11.3 0.00 0.05 0.00 67 1014.1
20260503221524 15 264 6.4 12.9 0.00 0.05 0.00 67 1014.1
20260503221041 15 285 8.0 16.1 0.00 0.05 0.00 67 1014.1
20260503220525 15 291 9.7 16.1 0.00 0.05 0.00 66 1014.1
20260503220055 16 269 4.8 11.3 0.00 0.05 0.05 66 1014.0
20260503215524 16 301 3.2 11.3 0.00 0.05 0.05 67 1014.0
20260503215018 16 285 4.8 12.9 0.00 0.05 0.05 67 1014.0
20260503214536 16 285 8.0 12.9 0.00 0.05 0.05 67 1014.1
20260503214032 16 280 8.0 12.9 0.00 0.05 0.05 67 1014.1
20260503213546 16 288 8.0 12.9 0.00 0.05 0.05 66 1014.0
20260503213031 16 290 8.0 11.3 0.00 0.05 0.05 66 1014.1
20260503212627 16 241 4.8 11.3 0.00 0.05 0.05 66 1011.5
20260503212043 16 281 3.2 11.3 0.00 0.05 0.05 66 1014.0
20260503211534 16 270 4.8 9.7 0.00 0.05 0.05 66 1013.8
20260503211017 16 277 4.8 9.7 0.00 0.05 0.05 65 1013.8
20260503210516 16 318 4.8 8.0 0.00 0.05 0.05 65 1013.7
20260503210047 16 269 3.2 9.7 0.00 0.05 0.05 65 1013.7
20260503205524 16 256 4.8 9.7 0.00 0.05 0.05 66 1013.7
20260503205109 16 319 4.8 9.7 0.00 0.05 0.05 65 1011.1
20260503204521 17 357 4.8 9.7 0.00 0.05 0.05 64 1013.5
20260503204021 17 302 3.2 9.7 0.00 0.05 0.05 65 1013.4
20260503203542 17 319 3.2 9.7 0.00 0.05 0.05 64 1013.3
20260503202528 17 317 3.2 9.7 0.00 0.05 0.05 64 1013.1
20260503202027 17 293 4.8 9.7 0.00 0.05 0.05 64 1013.1
20260503201534 17 269 4.8 12.9 0.00 0.05 0.05 64 1013.0
20260503201024 17 273 8.0 12.9 0.00 0.05 0.05 64 1012.9
20260503200527 17 294 4.8 6.4 0.00 0.05 0.05 63 1012.7
20260503200042 17 279 1.6 8.0 0.00 0.05 0.05 64 1012.6
20260503195531 17 256 6.4 9.7 0.00 0.05 0.05 63 1012.6
20260503195042 17 249 4.8 9.7 0.00 0.05 0.05 63 1012.6
20260503194541 17 250 4.8 6.4 0.00 0.05 0.05 63 1012.6
20260503194043 17 316 3.2 11.3 0.00 0.05 0.05 63 1012.4
20260503193525 18 280 3.2 11.3 0.00 0.05 0.05 62 1012.4
20260503193027 18 287 6.4 11.3 0.00 0.05 0.05 63 1012.4
20260503192533 18 278 3.2 9.7 0.00 0.05 0.05 63 1012.3
20260503192042 18 247 6.4 9.7 0.00 0.05 0.05 63 1012.4
20260503191517 18 248 3.2 12.9 0.00 0.05 0.05 63 1012.4
20260503191101 18 237 4.8 12.9 0.00 0.05 0.05 63 1012.3
20260503190044 18 252 4.8 12.9 0.00 0.05 0.05 62 1012.2
20260503185536 18 264 4.8 12.9 0.00 0.05 0.05 60 1012.2
20260503185023 18 286 6.4 12.9 0.00 0.05 0.05 58 1012.2
20260503184534 18 274 4.8 12.9 0.00 0.05 0.05 58 1012.0
20260503184023 18 269 11.3 14.5 0.00 0.05 0.05 58 1012.0
20260503183526 18 307 8.0 16.1 0.00 0.05 0.05 57 1012.0
20260503183048 18 277 9.7 16.1 0.00 0.05 0.05 57 1012.1
20260503182521 19 274 6.4 17.7 0.00 0.05 0.05 57 1012.0
20260503182020 19 288 8.0 14.5 0.00 0.05 0.05 57 1012.0
20260503181530 19 262 6.4 11.3 0.00 0.05 0.05 57 1012.0
20260503181017 19 287 6.4 14.5 0.00 0.05 0.05 56 1012.0
20260503180558 19 338 6.4 16.1 0.00 0.05 0.05 56 1011.9
20260503180104 19 286 8.0 16.1 0.00 0.05 0.05 55 1011.9
20260503175641 19 308 9.7 16.1 0.00 0.05 0.05 55 1009.5
20260503175121 19 256 9.7 16.1 0.00 0.05 0.05 55 1009.4
20260503174539 19 317 4.8 16.1 0.00 0.05 0.05 56 1011.9
20260503174039 19 301 12.9 16.1 0.00 0.05 0.05 55 1012.0
20260503173517 19 252 8.0 16.1 0.00 0.05 0.05 54 1012.0
20260503173032 20 266 9.7 19.3 0.00 0.05 0.05 53 1012.0
20260503172537 20 278 9.7 20.9 0.00 0.05 0.05 50 1011.8
20260503172120 20 233 14.5 20.9 0.00 0.05 0.05 49 1009.3
20260503171539 20 267 16.1 22.5 0.00 0.05 0.05 48 1011.8
20260503171031 20 259 12.9 22.5 0.00 0.05 0.05 50 1011.8
20260503170541 20 314 9.7 22.5 0.00 0.05 0.05 52 1011.8
20260503160104 20 322 17.7 25.7 0.00 0.05 0.05 51 1011.9
20260503150529 19 272 11.3 17.7 0.00 0.05 0.05 58 1012.3
20260503140140 20 233 11.3 27.4 0.00 0.05 0.05 54 1010.4
20260503131042 20 245 6.4 17.7 0.00 0.05 0.05 54 1013.2
20260503130541 19 277 9.7 17.7 0.00 0.05 0.05 55 1013.2
20260503130105 19 244 6.4 17.7 0.00 0.05 0.05 56 1013.3
20260503110517 18 249 19.3 27.4 0.00 0.05 0.05 59 1014.5
20260503081528 16 267 6.4 20.9 0.00 0.05 0.05 81 1014.9
20260503081026 15 268 14.5 17.7 0.00 0.05 0.05 81 1014.8
20260503080620 15 286 11.3 17.7 0.00 0.05 0.05 81 1012.3
20260503072531 15 273 6.4 14.5 0.00 0.05 0.05 85 1014.6
20260503072024 15 233 6.4 12.9 0.00 0.05 0.05 88 1014.6
20260503071535 15 263 8.0 12.9 0.00 0.05 0.05 88 1014.6
20260503071057 15 243 4.8 11.3 0.00 0.05 0.05 89 1014.6
20260503070625 14 252 6.4 11.3 0.00 0.05 0.05 89 1012.1
20260503054536 14 276 6.4 12.9 0.03 0.03 0.03 89 1014.3
20260503054030 14 270 6.4 12.9 0.03 0.03 0.03 88 1014.4
20260503053616 14 267 8.0 12.9 0.00 0.00 0.00 87 1011.9
20260503053033 14 234 3.2 9.7 0.00 0.00 0.00 86 1014.4
20260503052522 14 223 6.4 9.7 0.00 0.00 0.00 86 1014.3
20260503052031 14 229 4.8 9.7 0.00 0.00 0.00 85 1014.3
20260503051539 15 243 6.4 9.7 0.00 0.00 0.00 85 1014.3
20260503050527 15 248 6.4 12.9 0.00 0.00 0.00 85 1014.3
20260503050045 15 270 6.4 9.7 0.00 0.00 0.00 84 1014.3
20260503045538 15 278 4.8 9.7 0.00 0.00 0.00 84 1014.2
20260503045035 15 283 6.4 12.9 0.00 0.00 0.00 84 1014.1
20260503044517 15 293 6.4 12.9 0.00 0.00 0.00 84 1014.0
20260503044031 15 293 6.4 12.9 0.00 0.00 0.00 83 1014.0
20260503043528 15 273 4.8 9.7 0.00 0.00 0.00 83 1013.9
20260503043034 15 252 8.0 12.9 0.00 0.00 0.00 83 1014.0
20260503042517 15 260 6.4 14.5 0.00 0.00 0.00 82 1014.1
20260503042031 15 264 6.4 14.5 0.00 0.00 0.00 82 1014.1
20260503041625 15 258 4.8 12.9 0.00 0.00 0.00 81 1011.7
20260503041023 15 301 8.0 14.5 0.00 0.00 0.00 81 1014.2
20260503035602 15 280 6.4 14.5 0.00 0.00 0.00 79 1014.2
20260503035027 15 252 9.7 16.1 0.00 0.00 0.00 79 1014.4
20260503034523 15 273 9.7 16.1 0.00 0.00 0.00 78 1014.4
20260503034027 15 245 8.0 14.5 0.00 0.00 0.00 77 1014.4
20260503033545 15 264 9.7 12.9 0.00 0.00 0.00 77 1014.4
20260503033037 15 255 6.4 9.7 0.00 0.00 0.00 77 1014.4
20260503032542 15 269 6.4 12.9 0.00 0.00 0.00 76 1014.4
20260503032033 15 248 8.0 12.9 0.00 0.00 0.00 76 1014.4
20260503031535 15 253 4.8 9.7 0.00 0.00 0.00 76 1014.5
20260503031039 15 271 4.8 9.7 0.00 0.00 0.00 75 1014.5
20260503030526 15 264 4.8 6.4 0.00 0.00 0.00 75 1014.5
20260503030106 15 236 4.8 6.4 0.00 0.00 0.00 75 1014.4
20260503025029 15 264 4.8 8.0 0.00 0.00 0.00 75 1014.5
20260503024533 15 245 1.6 8.0 0.00 0.00 0.00 75 1014.5
20260503024047 15 214 1.6 8.0 0.00 0.00 0.00 75 1014.7
20260503023542 15 248 4.8 8.0 0.00 0.00 0.00 75 1014.7
20260503023038 15 250 6.4 8.0 0.00 0.00 0.00 75 1014.7
20260503022517 15 217 3.2 6.4 0.00 0.00 0.00 75 1014.7
20260503022017 15 245 3.2 6.4 0.00 0.00 0.00 75 1014.6
20260503021522 15 252 4.8 8.0 0.00 0.00 0.00 75 1014.7
20260503021034 15 248 4.8 8.0 0.00 0.00 0.00 75 1014.6
20260503020535 15 270 6.4 9.7 0.00 0.00 0.00 74 1014.6
20260503020049 15 256 6.4 11.3 0.00 0.00 0.00 74 1014.6
20260503015609 16 231 6.4 11.3 0.00 0.00 0.00 73 1012.1
20260503015031 16 226 0.0 8.0 0.00 0.00 0.00 72 1014.6
20260503014525 16 237 1.6 9.7 0.00 0.00 0.00 72 1014.6
20260503014029 16 249 6.4 9.7 0.00 0.00 0.00 72 1014.5
20260503013525 16 233 3.2 9.7 0.00 0.00 0.00 72 1014.6
20260503013024 16 214 3.2 8.0 0.00 0.00 0.00 71 1014.7
20260503012529 16 243 6.4 8.0 0.00 0.00 0.00 70 1014.7
20260503012019 16 215 3.2 8.0 0.00 0.00 0.00 71 1014.6
20260503011534 16 254 3.2 8.0 0.00 0.00 0.00 71 1014.7
20260503011053 16 214 3.2 4.8 0.00 0.00 0.00 72 1014.7
20260503010607 16 221 0.0 6.4 0.00 0.00 0.00 72 1012.3
20260503005526 16 241 3.2 4.8 0.00 0.00 0.00 73 1014.9
20260503005057 16 238 1.6 4.8 0.00 0.00 0.00 74 1015.0
20260503004539 16 229 0.0 4.8 0.00 0.00 0.00 75 1015.1
20260503004019 16 241 0.0 4.8 0.00 0.00 0.00 74 1015.2
20260503003516 16 223 3.2 6.4 0.00 0.00 0.00 75 1015.2
20260503003018 16 233 4.8 6.4 0.00 0.00 0.00 74 1015.3
20260503002536 16 218 0.0 4.8 0.00 0.00 0.00 75 1015.3
20260503002029 16 217 0.0 3.2 0.00 0.00 0.00 75 1015.4
20260503001532 16 244 1.6 4.8 0.00 0.00 0.00 75 1015.3
20260503001023 16 281 3.2 4.8 0.00 0.00 0.00 75 1015.4